DW2770 Cefalu IT current weather conditions

sailwx.info

Wind from 202 at 4 knots gusting 4

Air temperature 24.4° C
Dewpoint 20.6° C

Last reported at 2014-Aug-30 03:51 UTC.
Time now 2014-Aug-30 04:32 UTC

Location: N 38°02' E 014°02'.
View on Google Maps.

See reports from other nearby stations

  
Tides and Currents Weather Stations Pressure Air Temp Water Temp Dewpoint Dewpoint Depression Visibility Wind Speed Wind Dir Waves Ship Positions
date/time (UTC)wind fromknots sea level pressurealtimeterstation pressurevisibilityair tempwater tempwave heightnotes
2014-Aug-30 03:51 202 4 gusting 4 24.4
2014-Aug-30 03:41 202 2 gusting 2 24.4
2014-Aug-30 03:31 210 1 gusting 1 24.4
2014-Aug-30 03:21 202 1 gusting 2 24.4
2014-Aug-30 03:11 202 1 gusting 1 24.4
2014-Aug-30 03:01 202 1 gusting 1 24.4
2014-Aug-30 02:41 202 2 gusting 2 24.4
2014-Aug-30 02:31 187 1 gusting 2 24.4
2014-Aug-30 02:21 202 2 gusting 2 24.4
2014-Aug-30 02:11 225 1 gusting 2 24.4
2014-Aug-30 02:01 202 24.4
2014-Aug-30 01:51 202 1 gusting 4 24.4
2014-Aug-30 01:31 195 1 gusting 1 23.9
2014-Aug-30 01:21 199 0 gusting 2 23.9
2014-Aug-30 01:01 202 1 gusting 2 24.4
2014-Aug-30 00:51 180 2 gusting 4 24.4
2014-Aug-30 00:41 202 1 gusting 2 24.4
2014-Aug-30 00:31 202 2 gusting 2 23.9
2014-Aug-30 00:21 202 23.9
2014-Aug-30 00:11 202 1 gusting 1 23.9
2014-Aug-30 00:01 202 0 gusting 1 23.9
2014-Aug-29 23:51 112 23.9
2014-Aug-29 23:41 180 3 gusting 4 24.4
2014-Aug-29 23:31 184 24.4
2014-Aug-29 23:21 202 24.4
2014-Aug-29 23:11 225 1 gusting 4 24.4
2014-Aug-29 23:01 202 2 gusting 4 25.0
2014-Aug-29 22:51 202 2 gusting 4 25.0
2014-Aug-29 22:41 202 2 gusting 2 25.0
2014-Aug-29 22:31 225 2 gusting 4 25.0
2014-Aug-29 22:21 225 2 gusting 4 25.0
2014-Aug-29 22:10 225 1 gusting 2 25.0
2014-Aug-29 22:01 202 1 gusting 4 25.0
2014-Aug-29 21:51 271 2 gusting 2 25.0
2014-Aug-29 21:41 248 2 gusting 2 25.0
2014-Aug-29 21:31 225 1 gusting 2 25.0
2014-Aug-29 21:21 241 25.0
2014-Aug-29 21:11 202 1 gusting 2 25.0
2014-Aug-29 21:01 202 24.4
2014-Aug-29 20:51 180 24.4
2014-Aug-29 20:41 202 24.4
2014-Aug-29 20:31 202 25.0
2014-Aug-29 20:21 202 0 gusting 2 25.0
2014-Aug-29 20:11 202 0 gusting 2 25.0
2014-Aug-29 20:01 202 1 gusting 2 25.0
2014-Aug-29 19:51 202 2 gusting 2 25.0
2014-Aug-29 19:41 202 2 gusting 2 25.0
2014-Aug-29 19:31 202 25.0
2014-Aug-29 19:21 202 25.0
2014-Aug-29 19:11 202 25.6
2014-Aug-29 19:01 202 25.6
2014-Aug-29 18:51 202 25.6
2014-Aug-29 18:41 202 25.6
2014-Aug-29 18:31 270 25.6
2014-Aug-29 18:21 270 25.6
2014-Aug-29 18:11 315 25.6
2014-Aug-29 18:01 225 0 gusting 0 25.6
2014-Aug-29 17:51 291 25.6
2014-Aug-29 17:41 225 0 gusting 1 25.6
2014-Aug-29 17:31 25.6
2014-Aug-29 17:21 068 26.1
2014-Aug-29 17:11 045 0 gusting 1 26.1
2014-Aug-29 17:01 090 1 gusting 2 25.6
2014-Aug-29 16:51 068 1 gusting 2 26.1
2014-Aug-29 16:41 090 1 gusting 2 26.1
2014-Aug-29 16:31 068 1 gusting 4 26.1
2014-Aug-29 16:21 041 4 gusting 4 26.1
2014-Aug-29 16:11 045 0 gusting 5 26.7
2014-Aug-29 16:01 068 3 gusting 4 26.7
2014-Aug-29 15:50 068 0 gusting 5 26.7
2014-Aug-29 15:40 117 26.7
2014-Aug-29 15:30 046 3 gusting 5 26.1
2014-Aug-29 15:20 068 4 gusting 5 26.7
2014-Aug-29 15:10 051 1 gusting 4 26.7
2014-Aug-29 15:00 068 4 gusting 6 26.7
2014-Aug-29 14:50 090 3 gusting 4 26.7
2014-Aug-29 14:40 090 2 gusting 6 26.7
2014-Aug-29 14:30 022 1 gusting 6 26.7
2014-Aug-29 14:20 112 6 gusting 7 26.7
2014-Aug-29 14:10 068 4 gusting 6 26.7
2014-Aug-29 14:00 090 5 gusting 6 26.7
2014-Aug-29 13:50 068 2 gusting 6 26.7
2014-Aug-29 13:40 068 5 gusting 5 26.1
2014-Aug-29 13:30 045 4 gusting 6 26.1
2014-Aug-29 13:20 045 0 gusting 5 26.7
2014-Aug-29 13:10 068 4 gusting 5 26.1
2014-Aug-29 13:00 068 2 gusting 4 26.1
2014-Aug-29 12:50 068 4 gusting 4 26.1
2014-Aug-29 12:40 080 2 gusting 2 26.1
2014-Aug-29 12:30 087 2 gusting 2 26.1
2014-Aug-29 12:20 068 4 gusting 6 26.1
2014-Aug-29 12:10 051 2 gusting 2 26.1
2014-Aug-29 12:00 066 2 gusting 5 26.1
2014-Aug-29 11:50 068 2 gusting 5 26.1
2014-Aug-29 11:40 045 2 gusting 5 26.1
2014-Aug-29 11:30 046 2 gusting 5 26.1
2014-Aug-29 11:20 112 2 gusting 5 26.1
2014-Aug-29 11:10 089 2 gusting 5 26.7
2014-Aug-29 11:00 095 1 gusting 5 26.7
2014-Aug-29 10:50 068 1 gusting 2 26.7
2014-Aug-29 10:40 068 1 gusting 2 26.7
2014-Aug-29 10:30 287 1 gusting 2 26.7
2014-Aug-29 10:20 180 26.7
2014-Aug-29 10:10 059 1 gusting 4 26.7
2014-Aug-29 10:00 202 1 gusting 4 26.7
2014-Aug-29 09:50 248 1 gusting 2 26.7
2014-Aug-29 09:40 291 1 gusting 5 26.1
2014-Aug-29 09:30 283 5 gusting 5 26.1
2014-Aug-29 09:20 270 1 gusting 6 26.1
2014-Aug-29 09:10 315 1 gusting 1 26.1
2014-Aug-29 09:00 323 1 gusting 2 26.1
2014-Aug-29 08:50 270 2 gusting 4 25.6
2014-Aug-29 08:40 315 1 gusting 2 25.6
2014-Aug-29 08:30 283 1 gusting 6 25.6
2014-Aug-29 08:20 292 1 gusting 5 25.6
2014-Aug-29 08:10 292 1 gusting 2 25.6
2014-Aug-29 08:00 263 1 gusting 2 25.6
2014-Aug-29 07:50 292 2 gusting 4 26.1
2014-Aug-29 07:40 203 1 gusting 5 26.1
2014-Aug-29 07:30 237 4 gusting 5 25.6
2014-Aug-29 07:20 292 2 gusting 2 26.1
2014-Aug-29 07:10 316 0 gusting 2 26.1
2014-Aug-29 07:00 292 26.1
2014-Aug-29 06:50 315 26.1
2014-Aug-29 06:40 292 0 gusting 1 26.1
2014-Aug-29 06:30 309 1 gusting 1 26.1
2014-Aug-29 06:20 248 26.1
2014-Aug-29 06:10 286 26.1
2014-Aug-29 06:00 202 25.6
2014-Aug-29 05:50 202 0 gusting 2 25.0
2014-Aug-29 05:40 202 1 gusting 2 24.4
2014-Aug-29 05:30 180 2 gusting 2 23.9
2014-Aug-29 05:20 202 3 gusting 4 23.9
2014-Aug-29 05:10 180 2 gusting 4 23.3
2014-Aug-29 05:00 180 23.3
2014-Aug-29 04:50 180 0 gusting 2 22.8
2014-Aug-29 04:40 180 1 gusting 2 22.8
2014-Aug-29 04:30 194 1 gusting 2 22.8
2014-Aug-29 04:20 202 0 gusting 2 22.8
2014-Aug-29 04:10 180 1 gusting 4 22.8
2014-Aug-29 04:00 189 2 gusting 5 22.8
2014-Aug-29 03:50 202 3 gusting 4 22.8
2014-Aug-29 03:40 180 1 gusting 4 22.8
2014-Aug-29 03:30 168 1 gusting 1 22.8
2014-Aug-29 03:20 180 1 gusting 4 23.3
2014-Aug-29 03:10 202 1 gusting 1 23.3
2014-Aug-29 03:00 202 1 gusting 4 23.3
2014-Aug-29 02:50 180 23.3
2014-Aug-29 02:40 202 0 gusting 2 23.3
2014-Aug-29 02:30 193 2 gusting 2 23.3
2014-Aug-29 02:20 180 23.3
2014-Aug-29 02:10 180 2 gusting 5 23.3
2014-Aug-29 02:00 202 4 gusting 4 23.3
2014-Aug-29 01:50 158 3 gusting 4 23.3
2014-Aug-29 01:40 180 2 gusting 4 23.3
2014-Aug-29 01:30 174 1 gusting 2 23.3
2014-Aug-29 01:20 180 1 gusting 5 23.3
2014-Aug-29 01:10 180 2 gusting 5 23.3
2014-Aug-29 01:00 193 4 gusting 5 23.3
2014-Aug-29 00:50 180 0 gusting 5 23.3
2014-Aug-29 00:40 158 0 gusting 1 23.3
2014-Aug-29 00:30 197 23.3
2014-Aug-29 00:20 202 1 gusting 2 23.3
2014-Aug-29 00:10 202 23.9
2014-Aug-29 00:00 193 2 gusting 5 23.9
2014-Aug-28 23:50 180 2 gusting 2 23.9
2014-Aug-28 23:40 202 1 gusting 2 23.9
2014-Aug-28 23:30 180 1 gusting 2 23.9
2014-Aug-28 23:20 181 2 gusting 2 23.9
2014-Aug-28 23:10 202 1 gusting 5 23.9
2014-Aug-28 23:00 202 5 gusting 5 23.9
2014-Aug-28 22:50 180 4 gusting 4 23.9
2014-Aug-28 22:40 180 23.9
2014-Aug-28 22:30 184 5 gusting 6 23.9
2014-Aug-28 22:20 183 2 gusting 2 23.9
2014-Aug-28 22:10 180 0 gusting 4 24.4
2014-Aug-28 22:00 202 2 gusting 5 24.4
2014-Aug-28 21:50 182 2 gusting 4 24.4
2014-Aug-28 21:40 202 2 gusting 2 24.4
2014-Aug-28 21:30 180 1 gusting 4 24.4
2014-Aug-28 21:20 180 2 gusting 4 24.4
2014-Aug-28 21:10 180 2 gusting 4 24.4
2014-Aug-28 21:00 128 1 gusting 4 25.0
2014-Aug-28 20:50 202 4 gusting 5 25.0
2014-Aug-28 20:40 180 2 gusting 4 25.0
2014-Aug-28 20:30 180 25.0
2014-Aug-28 20:20 202 4 gusting 4 25.0
2014-Aug-28 20:10 202 2 gusting 2 25.0
2014-Aug-28 20:00 202 2 gusting 4 25.0
2014-Aug-28 19:50 202 2 gusting 4 25.0
2014-Aug-28 19:40 180 25.0
2014-Aug-28 19:30 180 1 gusting 2 25.0
2014-Aug-28 19:20 202 0 gusting 1 25.0
2014-Aug-28 19:10 180 25.0
2014-Aug-28 19:00 199 4 gusting 5 25.0
2014-Aug-28 18:50 158 0 gusting 1 25.0
2014-Aug-28 18:40 180 0 gusting 1 25.0
2014-Aug-28 18:30 338 25.0
2014-Aug-28 18:20 25.6
2014-Aug-28 18:10 338 25.6
2014-Aug-28 18:00 045 25.6
2014-Aug-28 17:50 068 25.6
2014-Aug-28 17:40 090 0 gusting 1 26.1
2014-Aug-28 17:30 090 0 gusting 1 26.1
2014-Aug-28 17:20 068 1 gusting 2 26.1
2014-Aug-28 17:10 068 0 gusting 2 26.7
2014-Aug-28 17:00 068 1 gusting 2 26.7
2014-Aug-28 16:50 054 2 gusting 2 26.7
2014-Aug-28 16:40 090 1 gusting 4 26.7
2014-Aug-28 16:30 090 4 gusting 4 26.7
2014-Aug-28 16:20 090 2 gusting 4 27.2
2014-Aug-28 16:10 045 2 gusting 6 27.2
2014-Aug-28 16:00 068 3 gusting 4 27.2
2014-Aug-28 15:50 068 2 gusting 5 27.2
2014-Aug-28 15:40 068 4 gusting 6 27.2
2014-Aug-28 15:30 090 4 gusting 6 27.2
2014-Aug-28 15:20 084 4 gusting 6 27.8
2014-Aug-28 15:10 090 4 gusting 6 27.8
2014-Aug-28 15:00 045 4 gusting 5 27.8
2014-Aug-28 14:50 082 4 gusting 6 27.8
2014-Aug-28 14:40 068 6 gusting 6 27.8
2014-Aug-28 14:30 090 5 gusting 6 27.8
2014-Aug-28 14:20 082 5 gusting 6 27.8
2014-Aug-28 14:10 112 5 gusting 7 27.8
2014-Aug-28 14:00 068 6 gusting 8 27.8
2014-Aug-28 13:50 047 6 gusting 7 28.3
2014-Aug-28 13:40 045 4 gusting 6 28.3
2014-Aug-28 13:30 112 5 gusting 6 28.3
2014-Aug-28 13:20 080 6 gusting 10 28.3
2014-Aug-28 13:10 045 5 gusting 6 28.3
2014-Aug-28 13:00 068 5 gusting 6 28.3
2014-Aug-28 12:50 095 4 gusting 6 28.9
2014-Aug-28 12:40 090 5 gusting 8 28.9
2014-Aug-28 12:30 068 4 gusting 10 28.9
2014-Aug-28 12:20 078 4 gusting 10 28.9
2014-Aug-28 12:10 068 4 gusting 5 28.9
2014-Aug-28 12:00 068 5 gusting 6 28.3
2014-Aug-28 11:50 068 3 gusting 7 28.9
2014-Aug-28 11:40 057 6 gusting 6 28.3
2014-Aug-28 11:30 045 5 gusting 6 28.3
2014-Aug-28 11:20 068 6 gusting 6 28.3
2014-Aug-28 11:10 068 2 gusting 7 28.3
2014-Aug-28 11:00 068 5 gusting 5 28.9
2014-Aug-28 10:50 068 2 gusting 6 28.3
2014-Aug-28 10:40 068 3 gusting 6 28.9
2014-Aug-28 10:30 090 4 gusting 6 28.3
2014-Aug-28 10:20 068 4 gusting 6 28.3
2014-Aug-28 10:10 068 5 gusting 6 28.3
2014-Aug-28 10:00 068 4 gusting 6 28.3
2014-Aug-28 09:50 053 6 gusting 6 27.8
2014-Aug-28 09:40 068 5 gusting 6 27.8
2014-Aug-28 09:30 045 3 gusting 5 27.8
2014-Aug-28 09:20 075 4 gusting 5 27.8
2014-Aug-28 09:10 070 3 gusting 5 27.8
2014-Aug-28 09:00 090 4 gusting 5 27.8
2014-Aug-28 08:50 081 2 gusting 5 27.8
2014-Aug-28 08:40 068 2 gusting 4 27.2
2014-Aug-28 08:30 090 2 gusting 5 27.2
2014-Aug-28 08:20 072 0 gusting 5 26.7
2014-Aug-28 08:10 072 2 gusting 4 26.7
2014-Aug-28 08:00 068 0 gusting 2 26.7
2014-Aug-28 07:50 090 2 gusting 4 26.1
2014-Aug-28 07:40 068 2 gusting 4 26.7
2014-Aug-28 07:30 068 0 gusting 2 26.1
2014-Aug-28 07:20 266 26.1
2014-Aug-28 07:10 263 1 gusting 2 26.1
2014-Aug-28 07:00 248 1 gusting 2 26.1
2014-Aug-28 06:50 288 2 gusting 2 25.6
2014-Aug-28 06:40 288 1 gusting 2 25.6
2014-Aug-28 06:30 225 1 gusting 2 25.6
2014-Aug-28 06:20 292 1 gusting 2 25.6
2014-Aug-28 06:10 254 2 gusting 2 25.6
2014-Aug-28 06:00 225 1 gusting 1 25.0
2014-Aug-28 05:50 248 25.6
2014-Aug-28 04:50 202 23.9
2014-Aug-28 04:40 202 23.9
2014-Aug-28 04:30 202 23.3
2014-Aug-28 04:20 180 23.3
2014-Aug-28 04:10 180 23.9
2014-Aug-28 04:00 202 2 gusting 4 23.3